Regional Weather Roundup
Issued by NWS

Home | Current Version | Previous Version | Graphics & Text | Print | Product List | Glossary On
Versions: 1 2 3 4 5 6 7 8 9 10 11 12 13 14 15 16 17 18 19 20 21 22 23 24 25 26 27 28 29 30 31 32 33 34 35 36 37 38 39 40 41 42 43 44 45 46 47 48 49 50
725
ASUS45 KTFX 170610
RWRMT
MONTANA REGIONAL WEATHER ROUNDUP
NATIONAL WEATHER SERVICE GREAT FALLS MT
1100 PM MST SAT DEC 16 2017

NOTE: "FAIR" INDICATES FEW OR NO CLOUDS BELOW 12000 FEET WITH NO
SIGNIFICANT WEATHER AND/OR OBSTRUCTIONS TO VISIBILITY.

MTZ001>007-043-170700-
WEST OF THE DIVIDE

CITY           SKY/WX    TMP DP  RH WIND       PRES   REMARKS
KALISPELL      FAIR      22  15  75 S6        30.13S WCI  14
MISSOULA       CLOUDY    19  17  92 CALM      30.19R
BUTTE          FOG        9   7  92 S5        30.06R VSB 1/4
MULLAN PASS    CLOUDY    17  12  80 S7        30.03F WCI   8
ANACONDA         N/A     14   5  67 CALM      30.07R
DEER LODGE       N/A     10   7  85 W5        30.12R
EUREKA           N/A     28  19  69 MISG      30.11F
HAMILTON         N/A     21  12  68 CALM      30.17R
LIBBY            N/A     18  16  93 CALM      30.15S
RONAN            N/A     18  16  93 SE7       30.16S WCI   8
$$

MTZ008-052>055-170700-
SOUTHWEST MONTANA

CITY           SKY/WX    TMP DP  RH WIND       PRES   REMARKS
BOZEMAN        FOG       17  15  92 S3        30.07R VSB 1/4
DILLON         FAIR      18  10  71 S12       30.04F WCI   5
W YELLOWSTONE  FAIR       1  -2  85 CALM      30.00S
ENNIS          CLOUDY    18  14  86 E7        30.09S WCI   8
$$

MTZ009-010-012-014-046-048-049-054-170700-
EAST SLOPES AND CENTRAL MONTANA

CITY           SKY/WX    TMP DP  RH WIND       PRES   REMARKS
CUT BANK       FAIR      23  13  65 W22       29.87F WCI   8
GREAT FALLS    FAIR      20  13  74 SW13      29.97F WCI   7
HELENA         FAIR      26  15  63 W12       30.07R WCI  16
CHOTEAU          N/A     21   9  58 SW8       29.93F WCI  12
RAYNESFORD     FAIR      25  14  64 SW8       29.97F WCI  16
$$

MTZ011-013-016-021-045-047-050-051-170700-
NORTH CENTRAL MONTANA

CITY           SKY/WX    TMP DP  RH WIND       PRES   REMARKS
HAVRE          CLOUDY    26  23  88 SW10      29.97F WCI  16
LEWISTOWN      FAIR      24  19  81 S9        29.97F WCI  14
N BAR RANCH    FAIR      27  18  69 SW10G16   29.99F WCI  17
CHINOOK          N/A     27  25  93 CALM      29.99F
GEYSER         FAIR      20  13  73 SW13      29.95F WCI   7
STANFORD       FAIR      15  10  81 SW8       29.95S WCI   4
$$

MTZ017>020-022>027-061-062-170700-
NORTHEAST MONTANA

CITY           SKY/WX    TMP DP  RH WIND       PRES   REMARKS
GLASGOW        FAIR      15  11  83 SE5       30.03S
GLENDIVE       FAIR      20  17  88 W7        30.07S WCI  11
JORDAN           N/A     12   7  80 W6        30.05S WCI   3
SIDNEY         FAIR      24  18  77 CALM      30.07R
WOLF POINT     FAIR      15  11  83 W5        30.07S
MALTA          CLOUDY    27  23  86 CALM      30.02S
PLENTYWOOD       N/A     23  16  74 CALM      30.01F
POPLAR           N/A     18  14  86 W3        30.07S
$$

MTZ028>42-056>058-170700-
SOUTHCENTRAL AND SOUTHEAST MONTANA

CITY           SKY/WX    TMP DP  RH WIND       PRES   REMARKS
BAKER          FAIR      26  23  88 CALM      30.06S
BILLINGS       MOCLDY    25  25 100 SW8       30.05S FOG     WCI  16
LIVINGSTON     MOCLDY    13  11  92 NW10      30.03S WCI   0
MILES CITY     FAIR      21  20  96 S5        30.07F
BIG TIMBER     FOG       18  16  93 W8        30.04F VSB 1   WCI   7
FORSYTH          N/A     28  25  86 CALM      30.07S
LAUREL           N/A     23  21  93 SW3       30.07S
$$

REGIONAL REPORTS...DAKOTAS

CITY           SKY/WX    TMP DP  RH WIND       PRES   REMARKS
WILLISTON      FAIR      21  17  84 SW9       30.05R WCI  11
MINOT          FAIR      26  19  74 SW9       30.01R WCI  17
DICKINSON      FAIR      24  18  77 W8        30.03S WCI  15
BEACH          MOCLDY    23  19  86 W6        30.08F WCI  16
CROSBY         FAIR      23  18  80 W15       30.01S WCI  10
TIOGA          FAIR      18  18 100 SW7       30.03S WCI   8
BISMARCK       FAIR      27  24  89 SW5       30.08R
GRAND FORKS    FAIR      15  13  91 S8        30.05R WCI   4
FARGO          FAIR      26  25  96 S7        30.09R WCI  18
BUFFALO SD       N/A     25  21  85 W6        30.00S WCI  18
RAPID CITY     CLOUDY    32  23  69 NW10      30.06S WCI  24
$$

REGIONAL REPORTS...WYOMING/IDAHO/WASHINGTON

CITY           SKY/WX    TMP DP  RH WIND       PRES   REMARKS
GILLETTE       LGT SNOW  26  25  96 N7        30.02S FOG     WCI  18
SHERIDAN       CLOUDY    27  27 100 CALM      30.04S FOG
BUFFALO WY     LGT SNOW  26  21  81 CALM      30.01F
CODY           MOCLDY    21  18  88 CALM      30.02R
YELLOWSTONE LA   N/A      3   0  87 CALM      29.98R
IDAHO FALLS    CLOUDY    22  21  96 SW7       30.11R WCI  13
SALMON         FAIR      12  10  92 E3        30.19R
BOISE          FAIR      26  21  81 NW5       30.20R
SPOKANE        CLOUDY    28  27  96 S5        30.22R
$$

REGIONAL REPORTS...ALBERTA

CITY           SKY/WX    TMP DP  RH WIND       PRES   REMARKS
EDMONTON       CLEAR     27  12  54 SW8       29.66F WCI  18
CALGARY        MOCLDY    23   5  46 S3        29.73F
LETHBRIDGE     CLEAR     27  14  59 SW18G24   29.83F WCI  13
MEDICINE HAT   CLEAR     25  18  74 S13G18    29.89F WCI  13
$$

REGIONAL REPORTS...SASKATCHEWAN

CITY           SKY/WX    TMP DP  RH WIND       PRES   REMARKS
SWIFT CURRENT  CLEAR     21  16  79 SW13      29.91S WCI   9
REGINA         CLEAR     19  16  86 SW9       29.94R WCI   9
SASKATOON      PTCLDY    16  14  93 SW8       29.87F WCI   5
$$




USA.gov is the U.S. government's official web portal to all federal, state and local government web resources and services.